This demonstration page uses our WeatherBlox Daily Observations layout. Learn more.

Left ArrowRight Arrow

Hourly Observations for April 28, 2018

Temp ( °F °C ) Dew Point ( °F °C ) Humidity (%) Winds ( mph kmh ) Pressure ( in mb ) Visibility ( mi km ) Precip ( " mm )
12:53 am 00:53 Clear 46 7.8 32 0 58 58 NE 12 19 30.07 1018 10 16 0.00 0.00
1:53 am 01:53 Clear 43 6.1 31 -0.6 63 63 NE 7 11 30.08 1019 10 16 0.00 0.00
2:53 am 02:53 Clear 42 5.6 32 0 68 68 NE 9 15 30.08 1019 10 16 0.00 0.00
3:53 am 03:53 Clear 40 4.4 31 -0.6 70 70 ENE 6 9 30.10 1019 10 16 0.00 0.00
4:53 am 04:53 Clear 38 3.3 31 -0.6 76 76 NE 5 7 30.12 1020 10 16 0.00 0.00
5:53 am 05:53 Clear 38 3.3 30 -1.1 73 73 NE 3 6 30.13 1020 10 16 0.00 0.00
6:53 am 06:53 Sunny 33 0.6 30 -1.1 89 89 Calm 30.16 1022 10 16 0.00 0.00
7:53 am 07:53 Sunny 41 5 34 1.1 76 76 NE 6 9 30.17 1022 10 16 0.00 0.00
8:53 am 08:53 Sunny 47 8.3 36 2.2 66 66 ENE 9 15 30.18 1022 10 16 0.00 0.00
9:53 am 09:53 Sunny 51 10.6 36 2.2 56 56 ENE 9 15 30.18 1022 10 16 0.00 0.00
10:53 am 10:53 Sunny 53 11.7 35 1.7 51 51 ENE 9 15 30.20 1023 10 16 0.00 0.00
11:53 am 11:53 Sunny 56 13.3 34 1.1 44 44 E 7 11 30.20 1023 10 16 0.00 0.00
12:53 pm 12:53 Sunny 59 15 33 0.6 38 38 E 12 19 30.17 1022 10 16 0.00 0.00
1:53 pm 13:53 Sunny 60 15.6 32 0 35 35 ESE 6 9 30.16 1021 10 16 0.00 0.00
2:53 pm 14:53 Sunny 63 17.2 32 0 31 31 ESE 14 22 30.13 1020 10 16 0.00 0.00
3:53 pm 15:53 Sunny 65 18.3 31 -0.6 28 28 ESE 13 20 30.11 1020 10 16 0.00 0.00
4:53 pm 16:53 Sunny 66 18.9 30 -1.1 26 26 E 13 20 30.08 1019 10 16 0.00 0.00
5:53 pm 17:53 Sunny 66 18.9 31 -0.6 27 27 ESE 14 22 30.07 1018 10 16 0.00 0.00
6:53 pm 18:53 Sunny 65 18.3 31 -0.6 28 28 SSE 13 20 30.07 1018 10 16 0.00 0.00
7:53 pm 19:53 Sunny 63 17.2 31 -0.6 30 30 SE 12 19 30.06 1018 10 16 0.00 0.00
8:53 pm 20:53 Clear 58 14.4 31 -0.6 36 36 SE 10 17 30.07 1018 10 16 0.00 0.00
9:53 pm 21:53 Clear 56 13.3 32 0 40 40 SE 12 19 30.09 1019 10 16 0.00 0.00
10:53 pm 22:53 Clear 54 12.2 33 0.6 45 45 SE 13 20 30.09 1019 10 16 0.00 0.00
11:53 pm 23:53 Clear 53 11.7 34 1.1 48 48 SE 16 26 30.06 1018 10 16 0.00 0.00

Powered by AerisWeather